23-09-2022, 00:00:04,    196,    0.0,   12.6,   0.00,   0.00, 1012.3,   89.3, -999.0
23-09-2022, 00:00:13,    196,    0.0,   12.5,   0.00,   0.00, 1012.3,   89.4, -999.0
23-09-2022, 00:00:24,    197,    0.0,   12.6,   0.00,   0.00, 1012.3,   89.4, -999.0
23-09-2022, 00:00:34,    196,    0.0,   12.6,   0.00,   0.00, 1012.3,   89.5, -999.0
23-09-2022, 00:00:43,    196,    0.0,   12.6,   0.00,   0.00, 1012.3,   89.5, -999.0
23-09-2022, 00:00:53,    196,    0.0,   12.6,   0.00,   0.01, 1012.3,   89.4, -999.0
23-09-2022, 00:01:03,    198,    0.0,   12.5,   0.00,   0.00, 1012.3,   89.4, -999.0
23-09-2022, 00:01:13,    197,    0.0,   12.5,   0.00,   0.00, 1012.3,   89.4, -999.0
23-09-2022, 00:01:23,    197,    0.0,   12.6,   0.00,   0.00, 1012.3,   89.5, -999.0
23-09-2022, 00:01:33,    197,    0.0,   12.5,   0.00,   0.00, 1012.3,   89.5, -999.0
23-09-2022, 00:01:43,    197,    0.0,   12.5,   0.00,   0.00, 1012.3,   89.6, -999.0
23-09-2022, 00:01:53,    196,    0.0,   12.6,   0.00,   0.00, 1012.3,   89.8, -999.0
23-09-2022, 00:02:03,    196,    0.0,   12.5,   0.00,   0.00, 1012.3,   89.9, -999.0
23-09-2022, 00:02:13,    197,    0.0,   12.5,   0.00,   0.00, 1012.3,   89.9, -999.0
23-09-2022, 00:02:23,    196,    0.0,   12.6,   0.00,   0.00, 1012.3,   90.1, -999.0
23-09-2022, 00:02:33,    197,    0.0,   12.5,   0.00,   0.00, 1012.2,   90.0, -999.0
23-09-2022, 00:02:43,    196,    0.0,   12.6,   0.00,   0.00, 1012.3,   90.0, -999.0
23-09-2022, 00:02:53,    197,    0.0,   12.6,   0.00,   0.00, 1012.2,   89.8, -999.0
23-09-2022, 00:03:03,    197,    0.0,   12.6,   0.00,   0.00, 1012.2,   89.7, -999.0
23-09-2022, 00:03:13,    196,    0.0,   12.6,   0.00,   0.01, 1012.3,   89.7, -999.0
23-09-2022, 00:03:22,    196,    0.0,   12.6,   0.00,   0.00, 1012.3,   89.8, -999.0
23-09-2022, 00:03:33,    197,    0.0,   12.6,   0.00,   0.00, 1012.3,   89.8, -999.0
23-09-2022, 00:03:42,    196,    0.0,   12.6,   0.00,   0.00, 1012.3,   89.9, -999.0
23-09-2022, 00:03:52,    196,    0.0,   12.5,   0.00,   0.00, 1012.2,   89.9, -999.0
23-09-2022, 00:04:02,    196,    0.0,   12.6,   0.00,   0.00, 1012.3,   90.0, -999.0
23-09-2022, 00:04:12,    196,    0.0,   12.6,   0.00,   0.00, 1012.2,   90.0, -999.0
23-09-2022, 00:04:22,    197,    0.0,   12.5,   0.00,   0.00, 1012.2,   90.1, -999.0
23-09-2022, 00:04:32,    196,    0.0,   12.6,   0.00,   0.00, 1012.3,   90.2, -999.0
23-09-2022, 00:04:42,    196,    0.0,   12.5,   0.00,   0.00, 1012.3,   90.2, -999.0
23-09-2022, 00:04:52,    196,    0.0,   12.5,   0.00,   0.00, 1012.3,   90.2, -999.0
23-09-2022, 00:05:02,    196,    0.0,   12.5,   0.00,   0.00, 1012.3,   90.3, -999.0
23-09-2022, 00:05:12,    230,    0.0,   12.5,   0.00,   0.00, 1012.3,   90.4, -999.0
23-09-2022, 00:05:22,    230,    0.0,   12.5,   0.00,   0.00, 1012.3,   90.4, -999.0
23-09-2022, 00:05:32,    230,    0.0,   12.5,   0.00,   0.00, 1012.3,   90.2, -999.0
23-09-2022, 00:05:42,    226,    0.0,   12.5,   0.00,   0.00, 1012.3,   90.2, -999.0
23-09-2022, 00:05:52,    226,    0.0,   12.5,   0.00,   0.00, 1012.3,   90.2, -999.0
23-09-2022, 00:06:02,    226,    0.0,   12.5,   0.00,   0.00, 1012.3,   90.4, -999.0
23-09-2022, 00:06:12,    226,    0.0,   12.5,   0.00,   0.00, 1012.3,   90.5, -999.0
23-09-2022, 00:06:21,    226,    0.0,   12.5,   0.00,   0.00, 1012.3,   90.8, -999.0
23-09-2022, 00:06:31,    226,    0.0,   12.6,   0.00,   0.00, 1012.3,   91.1, -999.0
23-09-2022, 00:06:42,    226,    0.0,   12.5,   0.00,   0.00, 1012.3,   91.3, -999.0
23-09-2022, 00:06:51,    226,    0.0,   12.5,   0.00,   0.00, 1012.3,   91.4, -999.0
23-09-2022, 00:07:01,    225,    0.0,   12.6,   0.00,   0.00, 1012.3,   91.7, -999.0
23-09-2022, 00:07:12,    226,    0.0,   12.6,   0.00,   0.00, 1012.3,   92.4, -999.0
23-09-2022, 00:07:21,    226,    0.0,   12.5,   0.00,   0.00, 1012.3,   92.1, -999.0
23-09-2022, 00:07:31,    226,    0.0,   12.6,   0.00,   0.00, 1012.3,   91.8, -999.0
23-09-2022, 00:07:41,    213,    0.0,   12.5,   0.00,   0.00, 1012.4,   91.6, -999.0
23-09-2022, 00:07:51,    213,    0.0,   12.5,   0.00,   0.01, 1012.3,   91.6, -999.0
23-09-2022, 00:08:01,    214,    0.0,   12.5,   0.00,   0.00, 1012.3,   91.7, -999.0
23-09-2022, 00:08:11,    214,    0.0,   12.5,   0.00,   0.00, 1012.3,   91.6, -999.0
23-09-2022, 00:08:21,    213,    0.0,   12.5,   0.00,   0.00, 1012.3,   91.7, -999.0
23-09-2022, 00:08:31,    214,    0.0,   12.5,   0.00,   0.00, 1012.3,   91.7, -999.0
23-09-2022, 00:08:41,    214,    0.0,   12.5,   0.00,   0.00, 1012.3,   92.0, -999.0
23-09-2022, 00:08:51,    214,    0.0,   12.4,   0.00,   0.00, 1012.3,   91.9, -999.0
23-09-2022, 00:09:01,    214,    0.0,   12.5,   0.00,   0.00, 1012.3,   91.8, -999.0
23-09-2022, 00:09:11,    214,    0.0,   12.5,   0.00,   0.00, 1012.3,   92.1, -999.0
23-09-2022, 00:09:21,    213,    0.0,   12.5,   0.00,   0.00, 1012.3,   92.2, -999.0
23-09-2022, 00:09:30,    213,    0.0,   12.5,   0.00,   0.00, 1012.3,   92.3, -999.0
23-09-2022, 00:09:40,    214,    0.0,   12.5,   0.00,   0.00, 1012.3,   92.2, -999.0
23-09-2022, 00:09:51,    213,    0.0,   12.5,   0.00,   0.00, 1012.3,   92.2, -999.0
23-09-2022, 00:10:00,    213,    0.0,   12.5,   0.00,   0.00, 1012.3,   92.3, -999.0
23-09-2022, 00:10:10,    214,    0.0,   12.5,   0.00,   0.00, 1012.3,   92.3, -999.0
23-09-2022, 00:10:21,    213,    0.0,   12.5,   0.00,   0.00, 1012.3,   92.5, -999.0
23-09-2022, 00:10:30,    214,    0.0,   12.5,   0.00,   0.00, 1012.3,   92.7, -999.0
23-09-2022, 00:10:40,    214,    0.0,   12.5,   0.00,   0.00, 1012.3,   93.0, -999.0
23-09-2022, 00:10:50,    214,    0.0,   12.5,   0.00,   0.01, 1012.3,   92.7, -999.0
23-09-2022, 00:11:00,    214,    0.0,   12.5,   0.00,   0.00, 1012.3,   92.7, -999.0
23-09-2022, 00:11:10,    213,    0.0,   12.5,   0.00,   0.00, 1012.3,   92.7, -999.0
23-09-2022, 00:11:20,    214,    0.0,   12.5,   0.00,   0.01, 1012.3,   92.7, -999.0
23-09-2022, 00:11:30,    214,    0.0,   12.5,   0.00,   0.00, 1012.3,   92.9, -999.0
23-09-2022, 00:11:40,    211,    0.0,   12.4,   0.00,   0.01, 1012.3,   93.1, -999.0
23-09-2022, 00:11:51,    213,    0.0,   12.4,   0.00,   0.00, 1012.3,   93.3, -999.0
23-09-2022, 00:12:00,    213,    0.0,   12.5,   0.00,   0.01, 1012.3,   93.3, -999.0
23-09-2022, 00:12:10,    214,    0.0,   12.4,   0.00,   0.00, 1012.3,   93.3, -999.0
23-09-2022, 00:12:20,    214,    0.0,   12.6,   0.00,   0.00, 1012.3,   93.3, -999.0
23-09-2022, 00:12:30,    213,    0.0,   12.4,   0.00,   0.01, 1012.3,   93.2, -999.0
23-09-2022, 00:12:40,    214,    0.0,   12.4,   0.00,   0.00, 1012.3,   93.6, -999.0
23-09-2022, 00:12:49,    214,    0.0,   12.4,   0.00,   0.00, 1012.2,   93.9, -999.0
23-09-2022, 00:13:00,    214,    0.0,   12.4,   0.00,   0.01, 1012.3,   94.4, -999.0
23-09-2022, 00:13:10,    214,    0.0,   12.4,   0.00,   0.00, 1012.3,   94.7, -999.0
23-09-2022, 00:13:19,    213,    0.0,   12.4,   0.00,   0.01, 1012.2,   95.0, -999.0
23-09-2022, 00:13:29,    214,    0.0,   12.4,   0.00,   0.00, 1012.2,   95.1, -999.0
23-09-2022, 00:13:39,    214,    0.0,   12.4,   0.00,   0.00, 1012.2,   95.1, -999.0
23-09-2022, 00:13:49,    214,    0.0,   12.5,   0.00,   0.01, 1012.2,   95.8, -999.0
23-09-2022, 00:13:59,    214,    0.0,   12.5,   0.00,   0.00, 1012.2,   96.2, -999.0
23-09-2022, 00:14:09,    214,    0.0,   12.5,   0.00,   0.00, 1012.2,   96.2, -999.0
23-09-2022, 00:14:19,    214,    0.0,   12.5,   0.00,   0.01, 1012.2,   96.0, -999.0
23-09-2022, 00:14:29,    214,    0.0,   12.5,   0.00,   0.00, 1012.2,   96.2, -999.0
23-09-2022, 00:14:39,    213,    0.0,   12.5,   0.00,   0.00, 1012.2,   96.8, -999.0
23-09-2022, 00:14:49,    214,    0.0,   12.5,   0.00,   0.00, 1012.2,   97.0, -999.0
23-09-2022, 00:14:59,    214,    0.0,   12.5,   0.00,   0.00, 1012.2,   97.0, -999.0
23-09-2022, 00:15:09,    213,    0.0,   12.5,   0.00,   0.01, 1012.2,   97.0, -999.0
23-09-2022, 00:15:19,    213,    0.0,   12.5,   0.00,   0.00, 1012.2,   97.2, -999.0
23-09-2022, 00:15:29,    214,    0.0,   12.5,   0.00,   0.00, 1012.2,   97.1, -999.0
23-09-2022, 00:15:39,    213,    0.0,   12.5,   0.00,   0.00, 1012.2,   97.0, -999.0
23-09-2022, 00:15:49,    214,    0.0,   12.4,   0.00,   0.00, 1012.2,   96.9, -999.0
23-09-2022, 00:15:58,    214,    0.0,   12.5,   0.00,   0.00, 1012.2,   96.9, -999.0
23-09-2022, 00:16:09,    213,    0.0,   12.4,   0.00,   0.00, 1012.2,   97.4, -999.0
23-09-2022, 00:16:18,    213,    0.0,   12.3,   0.00,   0.00, 1012.2,   98.4, -999.0
23-09-2022, 00:16:28,    213,    0.0,   12.4,   0.00,   0.01, 1012.2,   98.6, -999.0
23-09-2022, 00:16:38,    213,    0.0,   12.5,   0.00,   0.00, 1012.2,   98.6, -999.0
23-09-2022, 00:16:48,    213,    0.0,   12.5,   0.00,   0.00, 1012.2,   98.5, -999.0
23-09-2022, 00:16:58,    214,    0.0,   12.4,   0.00,   0.00, 1012.2,   98.6, -999.0
23-09-2022, 00:17:08,    213,    0.0,   12.4,   0.00,   0.00, 1012.2,   98.6, -999.0
23-09-2022, 00:17:18,    213,    0.0,   12.5,   0.00,   0.00, 1012.2,   98.7, -999.0
23-09-2022, 00:17:28,    214,    0.0,   12.4,   0.00,   0.00, 1012.2,   98.7, -999.0
23-09-2022, 00:17:38,    213,    0.0,   12.5,   0.00,   0.00, 1012.2,   98.6, -999.0
23-09-2022, 00:17:48,    214,    0.0,   12.4,   0.00,   0.00, 1012.2,   98.6, -999.0
23-09-2022, 00:17:58,    214,    0.0,   12.4,   0.00,   0.00, 1012.2,   98.6, -999.0
23-09-2022, 00:18:08,    214,    0.0,   12.4,   0.00,   0.00, 1012.2,   98.6, -999.0
23-09-2022, 00:18:18,    213,    0.0,   12.5,   0.00,   0.00, 1012.2,   98.5, -999.0
23-09-2022, 00:18:28,    214,    0.0,   12.5,   0.00,   0.00, 1012.2,   98.6, -999.0
23-09-2022, 00:18:38,    214,    0.0,   12.4,   0.00,   0.00, 1012.2,   98.6, -999.0
23-09-2022, 00:18:48,    213,    0.0,   12.5,   0.00,   0.00, 1012.2,   98.7, -999.0
23-09-2022, 00:18:58,    213,    0.0,   12.4,   0.00,   0.00, 1012.2,   98.7, -999.0
23-09-2022, 00:19:07,    213,    0.0,   12.4,   0.00,   0.00, 1012.2,   98.6, -999.0
23-09-2022, 00:19:18,    214,    0.0,   12.4,   0.00,   0.00, 1012.2,   98.6, -999.0
23-09-2022, 00:19:27,    214,    0.0,   12.4,   0.00,   0.00, 1012.3,   98.6, -999.0
23-09-2022, 00:19:37,    214,    0.0,   12.4,   0.00,   0.00, 1012.3,   98.6, -999.0
23-09-2022, 00:19:48,    214,    0.0,   12.4,   0.00,   0.00, 1012.2,   98.6, -999.0
23-09-2022, 00:19:57,    214,    0.0,   12.4,   0.00,   0.00, 1012.2,   98.7, -999.0
23-09-2022, 00:20:07,    214,    0.0,   12.5,   0.00,   0.00, 1012.2,   98.6, -999.0
23-09-2022, 00:20:17,    214,    0.0,   12.4,   0.00,   0.00, 1012.2,   98.6, -999.0
23-09-2022, 00:20:27,    214,    0.0,   12.3,   0.00,   0.00, 1012.2,   98.6, -999.0
23-09-2022, 00:20:37,    214,    0.0,   12.4,   0.00,   0.00, 1012.2,   98.5, -999.0
23-09-2022, 00:20:47,    214,    0.0,   12.4,   0.00,   0.00, 1012.2,   98.7, -999.0
23-09-2022, 00:20:57,    213,    0.0,   12.5,   0.00,   0.00, 1012.2,   98.6, -999.0
23-09-2022, 00:21:07,    214,    0.0,   12.4,   0.00,   0.00, 1012.2,   98.6, -999.0
23-09-2022, 00:21:17,    214,    0.0,   12.4,   0.00,   0.00, 1012.2,   98.6, -999.0
23-09-2022, 00:21:27,    214,    0.0,   12.4,   0.00,   0.00, 1012.2,   98.6, -999.0
23-09-2022, 00:21:37,    213,    0.0,   12.3,   0.00,   0.00, 1012.2,   98.6, -999.0
23-09-2022, 00:21:47,    213,    0.0,   12.4,   0.00,   0.00, 1012.2,   98.6, -999.0
23-09-2022, 00:21:57,    213,    0.0,   12.4,   0.00,   0.00, 1012.2,   98.6, -999.0
23-09-2022, 00:22:06,    214,    0.0,   12.5,   0.00,   0.00, 1012.2,   98.6, -999.0
23-09-2022, 00:22:17,    214,    0.0,   12.3,   0.00,   0.00, 1012.2,   98.6, -999.0
23-09-2022, 00:22:27,    213,    0.0,   12.3,   0.00,   0.00, 1012.3,   98.6, -999.0
23-09-2022, 00:22:36,    213,    0.0,   12.4,   0.00,   0.00, 1012.3,   98.6, -999.0
23-09-2022, 00:22:46,    213,    0.0,   12.4,   0.00,   0.00, 1012.3,   98.7, -999.0
23-09-2022, 00:22:57,    214,    0.0,   12.4,   0.00,   0.00, 1012.3,   98.6, -999.0
23-09-2022, 00:23:06,    214,    0.0,   12.4,   0.00,   0.00, 1012.2,   98.6, -999.0
23-09-2022, 00:23:16,    214,    0.0,   12.4,   0.00,   0.00, 1012.2,   98.5, -999.0
23-09-2022, 00:23:26,    214,    0.0,   12.4,   0.00,   0.00, 1012.2,   98.6, -999.0
23-09-2022, 00:23:36,    213,    0.0,   12.4,   0.00,   0.00, 1012.2,   98.6, -999.0
23-09-2022, 00:23:46,    214,    0.0,   12.3,   0.00,   0.00, 1012.2,   98.6, -999.0
23-09-2022, 00:23:56,    214,    0.0,   12.3,   0.00,   0.00, 1012.2,   98.6, -999.0
23-09-2022, 00:24:06,    211,    0.0,   12.4,   0.00,   0.00, 1012.2,   98.5, -999.0
23-09-2022, 00:24:16,    213,    0.0,   12.4,   0.00,   0.00, 1012.2,   98.6, -999.0
23-09-2022, 00:24:26,    214,    0.0,   12.4,   0.00,   0.00, 1012.2,   98.6, -999.0
23-09-2022, 00:24:36,    213,    0.0,   12.4,   0.00,   0.00, 1012.2,   98.6, -999.0
23-09-2022, 00:24:46,    215,    0.0,   12.4,   0.00,   0.00, 1012.2,   98.6, -999.0
23-09-2022, 00:24:56,    213,    0.0,   12.4,   0.00,   0.00, 1012.2,   98.6, -999.0
23-09-2022, 00:25:06,    214,    0.0,   12.4,   0.00,   0.00, 1012.2,   98.6, -999.0
23-09-2022, 00:25:15,    213,    0.0,   12.4,   0.00,   0.00, 1012.2,   98.6, -999.0
23-09-2022, 00:25:26,    214,    0.0,   12.4,   0.00,   0.00, 1012.2,   98.6, -999.0
23-09-2022, 00:25:36,    213,    0.0,   12.4,   0.00,   0.00, 1012.2,   98.5, -999.0
23-09-2022, 00:25:45,    213,    0.0,   12.5,   0.00,   0.00, 1012.2,   98.6, -999.0
23-09-2022, 00:25:56,    213,    0.0,   12.4,   0.00,   0.00, 1012.2,   98.6, -999.0
23-09-2022, 00:26:05,    214,    0.0,   12.4,   0.00,   0.00, 1012.2,   98.5, -999.0
23-09-2022, 00:26:15,    213,    0.0,   12.4,   0.00,   0.00, 1012.2,   98.5, -999.0
23-09-2022, 00:26:25,    214,    0.0,   12.4,   0.00,   0.00, 1012.2,   98.6, -999.0
23-09-2022, 00:26:35,    214,    0.0,   12.4,   0.00,   0.00, 1012.3,   98.6, -999.0
23-09-2022, 00:26:45,    213,    0.0,   12.4,   0.00,   0.00, 1012.2,   98.6, -999.0
23-09-2022, 00:26:55,    214,    0.0,   12.4,   0.00,   0.00, 1012.2,   98.5, -999.0
23-09-2022, 00:27:05,    214,    0.0,   12.4,   0.00,   0.00, 1012.2,   98.6, -999.0
23-09-2022, 00:27:15,    214,    0.0,   12.4,   0.00,   0.00, 1012.2,   98.6, -999.0
23-09-2022, 00:27:25,    214,    0.0,   12.4,   0.00,   0.00, 1012.2,   98.6, -999.0
23-09-2022, 00:27:35,    214,    0.0,   12.3,   0.00,   0.00, 1012.3,   98.5, -999.0
23-09-2022, 00:27:45,    213,    0.0,   12.4,   0.00,   0.00, 1012.3,   98.6, -999.0
23-09-2022, 00:27:55,    214,    0.0,   12.4,   0.00,   0.00, 1012.2,   98.6, -999.0
23-09-2022, 00:28:05,    214,    0.0,   12.4,   0.00,   0.00, 1012.2,   98.5, -999.0
23-09-2022, 00:28:15,    214,    0.0,   12.4,   0.00,   0.00, 1012.2,   98.6, -999.0
23-09-2022, 00:28:25,    214,    0.0,   12.4,   0.00,   0.00, 1012.3,   98.6, -999.0
23-09-2022, 00:28:35,    214,    0.0,   12.4,   0.00,   0.00, 1012.3,   98.6, -999.0
23-09-2022, 00:28:45,    214,    0.0,   12.3,   0.00,   0.00, 1012.2,   98.6, -999.0
23-09-2022, 00:28:54,    214,    0.0,   12.4,   0.00,   0.00, 1012.2,   98.6, -999.0
23-09-2022, 00:29:05,    213,    0.0,   12.4,   0.00,   0.00, 1012.2,   98.6, -999.0
23-09-2022, 00:29:14,    213,    0.0,   12.4,   0.00,   0.00, 1012.3,   98.6, -999.0
23-09-2022, 00:29:24,    213,    0.0,   12.4,   0.00,   0.00, 1012.2,   98.6, -999.0
23-09-2022, 00:29:34,    214,    0.0,   12.4,   0.00,   0.00, 1012.2,   98.6, -999.0
23-09-2022, 00:29:44,    213,    0.0,   12.4,   0.00,   0.00, 1012.2,   98.6, -999.0
23-09-2022, 00:29:54,    213,    0.0,   12.4,   0.00,   0.00, 1012.2,   98.6, -999.0
23-09-2022, 00:30:04,    213,    0.0,   12.4,   0.00,   0.00, 1012.2,   98.6, -999.0
23-09-2022, 00:30:14,    214,    0.0,   12.4,   0.00,   0.00, 1012.2,   98.6, -999.0
23-09-2022, 00:30:24,    213,    0.0,   12.4,   0.00,   0.00, 1012.2,   98.6, -999.0
23-09-2022, 00:30:34,    214,    0.0,   12.4,   0.00,   0.00, 1012.2,   98.7, -999.0
23-09-2022, 00:30:44,    213,    0.0,   12.4,   0.00,   0.00, 1012.2,   98.6, -999.0
23-09-2022, 00:30:54,    214,    0.0,   12.3,   0.00,   0.00, 1012.2,   98.6, -999.0
23-09-2022, 00:31:04,    214,    0.0,   12.4,   0.00,   0.00, 1012.2,   98.7, -999.0
23-09-2022, 00:31:14,    214,    0.0,   12.4,   0.00,   0.00, 1012.2,   98.6, -999.0
23-09-2022, 00:31:24,    214,    0.0,   12.4,   0.00,   0.00, 1012.2,   98.6, -999.0
23-09-2022, 00:31:34,    214,    0.0,   12.4,   0.00,   0.00, 1012.2,   98.6, -999.0
23-09-2022, 00:31:44,    211,    0.0,   12.4,   0.00,   0.00, 1012.2,   98.6, -999.0
23-09-2022, 00:31:53,    214,    0.0,   12.3,   0.00,   0.01, 1012.2,   98.5, -999.0
23-09-2022, 00:32:03,    214,    0.0,   12.4,   0.00,   0.00, 1012.2,   98.6, -999.0
23-09-2022, 00:32:14,    213,    0.0,   12.4,   0.00,   0.00, 1012.2,   98.6, -999.0
23-09-2022, 00:32:23,    214,    0.0,   12.4,   0.00,   0.00, 1012.2,   98.6, -999.0
23-09-2022, 00:32:33,    213,    0.0,   12.3,   0.00,   0.00, 1012.2,   98.7, -999.0
23-09-2022, 00:32:43,    213,    0.0,   12.4,   0.00,   0.00, 1012.2,   98.6, -999.0
23-09-2022, 00:32:53,    214,    0.0,   12.4,   0.00,   0.00, 1012.2,   98.6, -999.0
23-09-2022, 00:33:03,    214,    0.0,   12.4,   0.00,   0.01, 1012.2,   98.6, -999.0
23-09-2022, 00:33:13,    214,    0.0,   12.3,   0.00,   0.00, 1012.2,   98.6, -999.0
23-09-2022, 00:33:23,    214,    0.0,   12.3,   0.00,   0.00, 1012.2,   98.5, -999.0
23-09-2022, 00:33:33,    214,    0.0,   12.4,   0.00,   0.00, 1012.2,   98.6, -999.0
23-09-2022, 00:33:43,    213,    0.0,   12.3,   0.00,   0.00, 1012.2,   98.6, -999.0
23-09-2022, 00:33:53,    213,    0.0,   12.4,   0.00,   0.00, 1012.2,   98.6, -999.0
23-09-2022, 00:34:03,    213,    0.0,   12.3,   0.00,   0.00, 1012.2,   98.6, -999.0
23-09-2022, 00:34:13,    214,    0.0,   12.4,   0.00,   0.00, 1012.2,   98.5, -999.0
23-09-2022, 00:34:23,    213,    0.0,   12.4,   0.00,   0.00, 1012.2,   98.6, -999.0
23-09-2022, 00:34:33,    214,    0.0,   12.3,   0.00,   0.00, 1012.2,   98.6, -999.0
23-09-2022, 00:34:43,    213,    0.0,   12.4,   0.00,   0.00, 1012.2,   98.6, -999.0
23-09-2022, 00:34:53,    214,    0.0,   12.4,   0.00,   0.00, 1012.2,   98.6, -999.0
23-09-2022, 00:35:02,    213,    0.0,   12.4,   0.00,   0.00, 1012.2,   98.6, -999.0
23-09-2022, 00:35:12,    214,    0.0,   12.4,   0.00,   0.00, 1012.2,   98.6, -999.0
23-09-2022, 00:35:23,    214,    0.0,   12.4,   0.00,   0.00, 1012.2,   98.6, -999.0
23-09-2022, 00:35:32,    213,    0.0,   12.4,   0.00,   0.00, 1012.2,   98.6, -999.0
23-09-2022, 00:35:42,    214,    0.0,   12.4,   0.00,   0.01, 1012.2,   98.5, -999.0
23-09-2022, 00:35:52,    213,    0.0,   12.4,   0.00,   0.00, 1012.2,   98.6, -999.0
23-09-2022, 00:36:02,    213,    0.0,   12.3,   0.00,   0.00, 1012.2,   98.6, -999.0
23-09-2022, 00:36:12,    213,    0.0,   12.4,   0.00,   0.00, 1012.2,   98.6, -999.0
23-09-2022, 00:36:22,    214,    0.0,   12.4,   0.00,   0.00, 1012.2,   98.6, -999.0
23-09-2022, 00:36:32,    213,    0.0,   12.3,   0.00,   0.00, 1012.2,   98.6, -999.0
23-09-2022, 00:36:42,    213,    0.0,   12.3,   0.00,   0.00, 1012.2,   98.6, -999.0
23-09-2022, 00:36:52,    214,    0.0,   12.4,   0.00,   0.00, 1012.2,   98.6, -999.0
23-09-2022, 00:37:02,    214,    0.0,   12.4,   0.00,   0.00, 1012.2,   98.6, -999.0
23-09-2022, 00:37:12,    214,    0.0,   12.4,   0.00,   0.00, 1012.2,   98.6, -999.0
23-09-2022, 00:37:22,    213,    0.0,   12.4,   0.00,   0.00, 1012.2,   98.6, -999.0
23-09-2022, 00:37:32,    214,    0.0,   12.3,   0.00,   0.00, 1012.2,   98.6, -999.0
23-09-2022, 00:37:42,    213,    0.0,   12.3,   0.00,   0.00, 1012.2,   98.6, -999.0
23-09-2022, 00:37:52,    214,    0.0,   12.4,   0.00,   0.00, 1012.2,   98.6, -999.0
23-09-2022, 00:38:02,    214,    0.0,   12.4,   0.00,   0.00, 1012.2,   98.6, -999.0
23-09-2022, 00:38:12,    214,    0.0,   12.4,   0.00,   0.00, 1012.2,   98.6, -999.0
23-09-2022, 00:38:21,    213,    0.0,   12.3,   0.00,   0.00, 1012.2,   98.6, -999.0
23-09-2022, 00:38:32,    213,    0.0,   12.3,   0.00,   0.00, 1012.2,   98.6, -999.0
23-09-2022, 00:38:41,    213,    0.0,   12.4,   0.00,   0.00, 1012.2,   98.5, -999.0
23-09-2022, 00:38:51,    214,    0.0,   12.4,   0.00,   0.00, 1012.1,   98.6, -999.0
23-09-2022, 00:39:02,    214,    0.0,   12.4,   0.00,   0.00, 1012.1,   98.6, -999.0
23-09-2022, 00:39:11,    214,    0.0,   12.3,   0.00,   0.01, 1012.2,   98.7, -999.0
23-09-2022, 00:39:21,    214,    0.0,   12.4,   0.00,   0.00, 1012.1,   98.6, -999.0
23-09-2022, 00:39:31,    214,    0.0,   12.4,   0.00,   0.00, 1012.2,   98.6, -999.0
23-09-2022, 00:39:41,    213,    0.0,   12.4,   0.00,   0.00, 1012.1,   98.6, -999.0
23-09-2022, 00:39:51,    214,    0.0,   12.3,   0.00,   0.00, 1012.1,   98.7, -999.0
23-09-2022, 00:40:01,    214,    0.0,   12.4,   0.00,   0.00, 1012.1,   98.6, -999.0
23-09-2022, 00:40:11,    213,    0.0,   12.4,   0.00,   0.00, 1012.2,   98.6, -999.0
23-09-2022, 00:40:21,    213,    0.0,   12.4,   0.00,   0.00, 1012.1,   98.6, -999.0
23-09-2022, 00:40:31,    214,    0.0,   12.4,   0.00,   0.00, 1012.1,   98.6, -999.0
23-09-2022, 00:40:41,    213,    0.0,   12.4,   0.00,   0.00, 1012.1,   98.5, -999.0
23-09-2022, 00:40:51,    214,    0.0,   12.3,   0.00,   0.00, 1012.1,   98.7, -999.0
23-09-2022, 00:41:01,    214,    0.0,   12.3,   0.00,   0.00, 1012.2,   98.6, -999.0
23-09-2022, 00:41:11,    214,    0.0,   12.4,   0.00,   0.01, 1012.1,   98.5, -999.0
23-09-2022, 00:41:20,    213,    0.0,   12.4,   0.00,   0.00, 1012.1,   98.6, -999.0
23-09-2022, 00:41:31,    214,    0.0,   12.4,   0.00,   0.00, 1012.1,   98.6, -999.0
23-09-2022, 00:41:41,    214,    0.0,   12.4,   0.00,   0.00, 1012.1,   98.6, -999.0
23-09-2022, 00:41:50,    217,    0.0,   12.3,   0.00,   0.00, 1012.1,   98.6, -999.0
23-09-2022, 00:42:00,    213,    0.0,   12.3,   0.00,   0.00, 1012.1,   98.6, -999.0
23-09-2022, 00:42:11,    214,    0.0,   12.4,   0.00,   0.00, 1012.1,   98.6, -999.0
23-09-2022, 00:42:20,    214,    0.0,   12.4,   0.00,   0.00, 1012.1,   98.6, -999.0
23-09-2022, 00:42:30,    214,    0.0,   12.4,   0.00,   0.00, 1012.1,   98.6, -999.0
23-09-2022, 00:42:40,    214,    0.0,   12.4,   0.00,   0.01, 1012.1,   98.6, -999.0
23-09-2022, 00:42:52,    214,    0.0,   12.3,   0.00,   0.00, 1012.1,   98.6, -999.0
23-09-2022, 00:43:00,    213,    0.0,   12.3,   0.00,   0.00, 1012.1,   98.5, -999.0
23-09-2022, 00:43:10,    213,    0.0,   12.4,   0.00,   0.00, 1012.1,   98.5, -999.0
23-09-2022, 00:43:20,    213,    0.0,   12.4,   0.00,   0.00, 1012.1,   98.6, -999.0
23-09-2022, 00:43:30,    213,    0.0,   12.3,   0.00,   0.00, 1012.1,   98.6, -999.0
23-09-2022, 00:43:40,    213,    0.0,   12.3,   0.00,   0.00, 1012.1,   98.5, -999.0
23-09-2022, 00:43:50,    214,    0.0,   12.3,   0.00,   0.00, 1012.0,   98.6, -999.0
23-09-2022, 00:44:00,    213,    0.0,   12.3,   0.00,   0.00, 1012.1,   98.6, -999.0
23-09-2022, 00:44:10,    213,    0.0,   12.1,   0.00,   0.00, 1012.1,   98.6, -999.0
23-09-2022, 00:44:20,    214,    0.0,   12.3,   0.00,   0.00, 1012.1,   98.5, -999.0
23-09-2022, 00:44:29,    214,    0.0,   12.3,   0.00,   0.00, 1012.1,   98.6, -999.0
23-09-2022, 00:44:39,    214,    0.0,   12.3,   0.00,   0.01, 1012.0,   98.5, -999.0
23-09-2022, 00:44:50,    214,    0.0,   12.2,   0.00,   0.00, 1012.1,   98.6, -999.0
23-09-2022, 00:44:59,    213,    0.0,   12.3,   0.00,   0.00, 1012.1,   98.6, -999.0
23-09-2022, 00:45:09,    214,    0.0,   12.3,   0.00,   0.00, 1012.1,   98.6, -999.0
23-09-2022, 00:45:20,    214,    0.0,   12.3,   0.00,   0.00, 1012.1,   98.6, -999.0
23-09-2022, 00:45:29,    213,    0.0,   12.3,   0.00,   0.00, 1012.1,   98.6, -999.0
23-09-2022, 00:45:39,    213,    0.0,   12.2,   0.00,   0.00, 1012.1,   98.6, -999.0
23-09-2022, 00:45:49,    214,    0.0,   12.2,   0.00,   0.00, 1012.0,   98.6, -999.0
23-09-2022, 00:45:59,    213,    0.0,   12.3,   0.00,   0.01, 1012.0,   98.6, -999.0
23-09-2022, 00:46:09,    213,    0.0,   12.3,   0.00,   0.00, 1012.0,   98.6, -999.0
23-09-2022, 00:46:19,    214,    0.0,   12.1,   0.00,   0.00, 1012.1,   98.6, -999.0
23-09-2022, 00:46:29,    213,    0.0,   12.3,   0.00,   0.00, 1012.1,   98.6, -999.0
23-09-2022, 00:46:39,    214,    0.0,   12.3,   0.00,   0.00, 1012.0,   98.6, -999.0